COSMOS 2544 (759)

Last updated on Tue Jul 01 2025 00:03:16 GMT+0000 (Coordinated Universal Time)

1 44850U 19088A 25181.08333256 -.00000027 00000+0 00000+0 0 9992 2 44850 65.3687 85.4991 0012752 258.5372 101.3581 2.13102063 43210
UTC large
Height (km)
Speed (km/s)
/
Latitude / Longitude
Inclination (degrees)
Orbital Period (minutes)
Azimuth
Elevation
Range (km)
Doppler Factor

Next 0 passes for location: London (51.5072 / 0.1276)

Sorry there are no passes over London.